Superior, WI

8:30 PM CDT on March 26, 2017 (GMT -0500)
Bong

Weather History for KSUW - March, 2013

Change the Weather History Date:

Sunday, March 3, 2013

  Actual Average Record
Temperature  
Mean Temperature 12 °F -  
Max Temperature 27 °F 31 °F 46 °F (1961)
Min Temperature -4 °F 13 °F -21 °F (2014)
Degree Days  
Heating Degree Days 54    
Moisture  
Dew Point 6 °F    
Average Humidity 70    
Maximum Humidity 90    
Minimum Humidity 46    
Precipitation  
Precipitation 0.00 in - - ()
Sea Level Pressure  
Sea Level Pressure 30.13 in    
Wind  
Wind Speed 3 mph (ENE)    
Max Wind Speed 15 mph    
Max Gust Speed 21 mph    
Visibility 10 miles    
Events      
Averages and records for this station are not official NWS values.
T = Trace of Precipitation, MM = Missing Value Source: NWS Daily Summary

Daily Weather History Graph

Daily Weather History Graph

Search for Another Location

Airport or City:

Trip Planner

Search our weather history database for the weather conditions in past years. The results will help you decide how hot, cold, wet, or windy it might be!

Date:

Astronomy

Mar. 03, 2013 Rise Set
Actual Time 6:43 AM CST 5:57 PM CST
Civil Twilight 6:13 AM CST 6:27 PM CST
Nautical Twilight 5:38 AM CST 7:02 PM CST
Astronomical Twilight 5:03 AM CST 7:38 PM CST
Moon No Moon Rise 9:34 AM CST (3/3)
Length of Visible Light 12h 14m
Length of Day
11h 13m
Waning Gibbous, 63% of the Moon is Illuminated
Mar 3
Waning Gibbous
Mar 4
Last Quarter
Mar 11
New
Mar 19
First Quarter
Mar 27
Full

Hourly Weather History & Observations

Time (CST) Temp. Windchill Dew Point Humidity Pressure Visibility Wind Dir Wind Speed Gust Speed Precip Events Conditions
12:15 AM 3.7 °F - 0.5 °F 86% 30.19 in 10.0 mi Calm Calm - N/A   Clear
12:35 AM 2.7 °F - 0.1 °F 89% 30.19 in 10.0 mi Calm Calm - N/A   Clear
12:55 AM 3.2 °F - 0.9 °F 90% 30.19 in 10.0 mi Calm Calm - N/A   Clear
1:15 AM 3.0 °F - -0.2 °F 86% 30.19 in 10.0 mi Calm Calm - N/A   Clear
1:35 AM 1.4 °F - -1.7 °F 87% 30.19 in 10.0 mi Calm Calm - N/A   Clear
1:55 AM 1.4 °F - -0.9 °F 90% 30.18 in 10.0 mi Calm Calm - N/A   Clear
2:15 AM -1.1 °F - -4.4 °F 86% 30.17 in 10.0 mi Calm Calm - N/A   Clear
2:35 AM -0.9 °F - -4.5 °F 85% 30.17 in 10.0 mi Calm Calm - N/A   Clear
2:55 AM -0.9 °F - -4.2 °F 86% 30.17 in 10.0 mi Calm Calm - N/A   Clear
3:15 AM -1.5 °F - -4.7 °F 86% 30.17 in 10.0 mi Calm Calm - N/A   Clear
3:35 AM -3.1 °F - -7.4 °F 82% 30.17 in 10.0 mi Calm Calm - N/A   Clear
3:55 AM -1.7 °F - -4.9 °F 86% 30.17 in 10.0 mi Calm Calm - N/A   Clear
4:15 AM -4.0 °F - -8.0 °F 83% 30.17 in 10.0 mi Calm Calm - N/A   Clear
4:35 AM -3.6 °F - -7.1 °F 85% 30.17 in 10.0 mi Calm Calm - N/A   Clear
4:55 AM -4.4 °F - -8.1 °F 84% 30.18 in 10.0 mi Calm Calm - N/A   Clear
5:15 AM -4.5 °F - -8.7 °F 82% 30.18 in 10.0 mi Calm Calm - N/A   Mostly Cloudy
5:35 AM -3.3 °F - -7.2 °F 83% 30.18 in 10.0 mi Calm Calm - N/A   Overcast
5:55 AM -2.4 °F - -6.5 °F 82% 30.18 in 10.0 mi Calm Calm - N/A   Overcast
6:15 AM -1.3 °F - -4.9 °F 85% 30.18 in 10.0 mi Calm Calm - N/A   Overcast
6:35 AM 0.5 °F - -3.6 °F 83% 30.17 in 10.0 mi Calm Calm - N/A   Overcast
6:55 AM 1.9 °F - -1.8 °F 84% 30.17 in 10.0 mi Calm Calm - N/A   Overcast
7:15 AM 2.7 °F - -1.5 °F 83% 30.17 in 10.0 mi Calm Calm - N/A   Overcast
7:35 AM 3.6 °F - -0.6 °F 83% 30.18 in 10.0 mi Calm Calm - N/A   Overcast
7:55 AM 7.0 °F - 3.4 °F 85% 30.17 in 10.0 mi Calm Calm - N/A   Overcast
8:15 AM 9.5 °F - 5.2 °F 83% 30.17 in 10.0 mi Calm Calm - N/A   Overcast
8:35 AM 14.4 °F - 9.0 °F 79% 30.17 in 10.0 mi Calm Calm - N/A   Overcast
8:55 AM 16.7 °F - 2.7 °F 54% 30.17 in 10.0 mi Calm Calm - N/A   Overcast
9:15 AM 18.1 °F 12.9 °F 1.9 °F 49% 30.17 in 10.0 mi ENE 3.5 mph - N/A   Overcast
9:35 AM 18.5 °F - 0.9 °F 46% 30.16 in 10.0 mi Calm Calm - N/A   Mostly Cloudy
9:55 AM 18.7 °F - 1.2 °F 47% 30.16 in 10.0 mi Calm Calm - N/A   Scattered Clouds
10:15 AM 19.4 °F - 2.7 °F 48% 30.16 in 10.0 mi Calm Calm - N/A   Clear
10:35 AM 21.2 °F - 3.6 °F 47% 30.15 in 10.0 mi Calm Calm - N/A   Clear
10:55 AM 22.3 °F 14.9 °F 6.6 °F 51% 30.15 in 10.0 mi NNE 5.8 mph - N/A   Clear
11:15 AM 23.0 °F 17.0 °F 6.4 °F 49% 30.15 in 10.0 mi NNE 4.6 mph - N/A   Clear
11:35 AM 23.2 °F 16.0 °F 5.4 °F 47% 30.14 in 10.0 mi NE 5.8 mph - N/A   Clear
11:55 AM 23.9 °F 16.8 °F 6.8 °F 48% 30.14 in 10.0 mi NNE 5.8 mph - N/A   Clear
12:15 PM 24.3 °F 16.3 °F 7.3 °F 49% 30.13 in 10.0 mi NNE 6.9 mph - N/A   Clear
12:35 PM 25.3 °F 16.0 °F 7.9 °F 48% 30.12 in 10.0 mi NE 9.2 mph - N/A   Clear
12:55 PM 26.4 °F 17.3 °F 10.4 °F 51% 30.11 in 10.0 mi ENE 9.2 mph - N/A   Clear
1:15 PM 25.7 °F 17.1 °F 9.0 °F 49% 30.11 in 10.0 mi ENE 8.1 mph - N/A   Clear
1:35 PM 26.6 °F 17.5 °F 11.7 °F 53% 30.10 in 10.0 mi ENE 9.2 mph - N/A   Clear
1:55 PM 26.8 °F 16.5 °F 11.5 °F 53% 30.09 in 10.0 mi ENE 11.5 mph - N/A   Clear
2:15 PM 27.1 °F 17.5 °F 12.0 °F 53% 30.08 in 10.0 mi NE 10.4 mph - N/A   Clear
2:35 PM 27.1 °F 15.9 °F 12.9 °F 55% 30.08 in 10.0 mi ENE 13.8 mph - N/A   Clear
2:55 PM 27.1 °F 15.9 °F 13.6 °F 57% 30.08 in 10.0 mi ENE 13.8 mph 18.4 mph N/A   Clear
3:15 PM 27.1 °F 15.4 °F 14.4 °F 59% 30.08 in 10.0 mi ENE 15.0 mph 20.7 mph N/A   Clear
3:35 PM 26.6 °F 16.2 °F 15.3 °F 62% 30.07 in 10.0 mi ENE 11.5 mph 19.6 mph N/A   Clear
3:55 PM 27.0 °F 17.3 °F 16.3 °F 64% 30.08 in 10.0 mi ENE 10.4 mph 19.6 mph N/A   Clear
4:15 PM 26.6 °F 15.7 °F 16.7 °F 66% 30.07 in 10.0 mi ENE 12.7 mph 17.3 mph N/A   Clear
4:35 PM 26.4 °F 15.5 °F 16.9 °F 67% 30.07 in 10.0 mi ENE 12.7 mph 19.6 mph N/A   Clear
4:55 PM 25.7 °F 14.0 °F 16.7 °F 69% 30.07 in 10.0 mi ENE 13.8 mph 19.6 mph N/A   Clear
5:15 PM 25.5 °F 14.3 °F 17.1 °F 70% 30.07 in 10.0 mi ENE 12.7 mph - N/A   Clear
5:35 PM 24.8 °F 13.4 °F 17.1 °F 72% 30.07 in 10.0 mi ENE 12.7 mph 16.1 mph N/A   Clear
5:55 PM 24.4 °F 13.0 °F 16.7 °F 72% 30.07 in 10.0 mi ENE 12.7 mph 17.3 mph N/A   Clear
6:15 PM 24.1 °F 13.1 °F 17.2 °F 75% 30.07 in 10.0 mi ENE 11.5 mph - N/A   Clear
6:35 PM 24.3 °F 13.9 °F 17.4 °F 75% 30.07 in 10.0 mi ENE 10.4 mph 18.4 mph N/A   Clear
6:55 PM 24.6 °F 14.4 °F 17.2 °F 74% 30.07 in 10.0 mi ENE 10.4 mph - N/A   Clear
7:15 PM 24.4 °F 15.6 °F 16.9 °F 73% 30.09 in 10.0 mi ENE 8.1 mph - N/A   Clear
7:35 PM 23.9 °F 15.8 °F 16.7 °F 74% 30.09 in 10.0 mi ENE 6.9 mph - N/A   Clear
7:55 PM 23.7 °F 15.6 °F 15.8 °F 72% 30.08 in 10.0 mi East 6.9 mph - N/A   Clear
8:15 PM 23.0 °F 13.9 °F 11.7 °F 62% 30.09 in 10.0 mi East 8.1 mph - N/A   Scattered Clouds
8:35 PM 22.1 °F 14.7 °F 9.5 °F 58% 30.09 in 10.0 mi East 5.8 mph - N/A   Scattered Clouds
8:55 PM 21.0 °F 11.4 °F 9.5 °F 61% 30.10 in 10.0 mi East 8.1 mph - N/A   Scattered Clouds
9:15 PM 21.2 °F 11.7 °F 12.4 °F 69% 30.10 in 10.0 mi East 8.1 mph - N/A   Clear
9:35 PM 20.3 °F 12.5 °F 11.8 °F 70% 30.10 in 10.0 mi East 5.8 mph - N/A   Clear
9:55 PM 19.8 °F 11.9 °F 11.3 °F 70% 30.10 in 10.0 mi East 5.8 mph - N/A   Clear
10:15 PM 20.1 °F 13.6 °F 11.3 °F 69% 30.10 in 10.0 mi East 4.6 mph - N/A   Scattered Clouds
10:35 PM 20.1 °F 11.3 °F 12.4 °F 72% 30.09 in 10.0 mi East 6.9 mph - N/A   Scattered Clouds
10:55 PM 21.6 °F 11.3 °F 14.7 °F 75% 30.09 in 10.0 mi East 9.2 mph - N/A   Scattered Clouds
11:15 PM 21.9 °F 11.0 °F 15.4 °F 76% 30.08 in 10.0 mi East 10.4 mph - N/A   Scattered Clouds
11:35 PM 22.1 °F 14.7 °F 15.4 °F 76% 30.09 in 10.0 mi East 5.8 mph - N/A   Scattered Clouds
11:55 PM 22.1 °F 12.8 °F 15.8 °F 77% 30.08 in 10.0 mi East 8.1 mph - N/A   Scattered Clouds